Simultaneous Nadir Overpasses (SNOs) Predictions

Prediction of SNOs between TERRA and METOP-C Satellite Orbit:

Table of predicted SNOs for the next 14.0 days since TLE Epoch: 12/19/2020
Index Date (TERRA) Time (TERRA) Lat,Lon (TERRA) SZA (TERRA ) Date (METOP-C) Time (METOP-C) Lat,Lon (METOP-C) SZA (METOP-C ) Distance(km) Time Diff (sec)
1 12/20/2020 02:39:20 -81.28, 6.72 72.68 12/20/2020 02:39:07 -81.28, 6.75 72.68 0.46 13
2 12/20/2020 03:28:46 81.29, 174.49 107.35 12/20/2020 03:29:48 81.28, 174.35 107.36 2.25 62
3 12/22/2020 22:13:35 -81.28, 73.13 72.72 12/22/2020 22:13:31 -81.27, 72.96 72.74 2.84 4
4 12/22/2020 23:03:01 81.28,-119.13 107.30 12/22/2020 23:04:11 81.29,-119.07 107.34 1.02 70
5 12/25/2020 16:58:23 81.28, -28.09 107.18 12/25/2020 16:57:15 81.27, -28.20 107.14 1.90 68
6 12/25/2020 17:47:49 -81.27, 139.50 72.83 12/25/2020 17:47:53 -81.28, 139.55 72.82 1.06 4
7 12/28/2020 12:32:37 81.27, 38.21 107.00 12/28/2020 12:31:37 81.27, 38.33 106.99 2.14 60
8 12/28/2020 13:22:03 -81.29,-153.80 72.96 12/28/2020 13:22:16 -81.28,-153.87 72.96 1.46 13
9 12/31/2020 08:06:51 81.28, 104.85 106.81 12/31/2020 08:06:00 81.27, 104.84 106.78 0.56 51



Historial Predications of SNOs between TERRA and METOP-C
